Weather History for KACV - July, 2014

Change the Weather History Date:

Monday, July 21, 2014

  Actual Average Record
Temperature  
Mean Temperature 60 °F -  
Max Temperature 64 °F 61 °F 93 °F (1998)
Min Temperature 55 °F 50 °F 33 °F (1996)
Degree Days  
Heating Degree Days 6    
Growing Degree Days 10 (Base 50)    
Moisture  
Dew Point 53 °F    
Average Humidity 82    
Maximum Humidity 90    
Minimum Humidity 67    
Precipitation  
Precipitation 0.00 in - - ()
Sea Level Pressure  
Sea Level Pressure 30.05 in    
Wind  
Wind Speed 5 mph (SW)    
Max Wind Speed 10 mph    
Max Gust Speed -    
Visibility 10 miles    
Events      
Averages and records for this station are not official NWS values.
T = Trace of Precipitation, MM = Missing Value Source: NWS Daily Summary

Daily Weather History Graph

Daily Weather History Graph

Search for Another Location

Airport or City:

Trip Planner

Search our weather history database for the weather conditions in past years. The results will help you decide how hot, cold, wet, or windy it might be!

Date:

Astronomy

Jul. 21, 2014 Rise Set
Actual Time 6:02 AM PDT 8:42 PM PDT
Civil Twilight 5:30 AM PDT 9:14 PM PDT
Nautical Twilight 4:50 AM PDT 9:54 PM PDT
Astronomical Twilight 4:04 AM PDT 10:39 PM PDT
Moon 1:57 AM PDT (7/21) 4:30 PM PDT (7/21)
Length of Visible Light 15h 44m
Length of Day
14h 40m
Waning Crescent, 23% of the Moon is Illuminated
Jul 21
Waning Crescent
Jul 26
New
Aug 3
First Quarter
Aug 10
Full
Aug 17
Last Quarter

Hourly Weather History & Observations

Time (PDT) Temp. Dew Point Humidity Pressure Visibility Wind Dir Wind Speed Gust Speed Precip Events Conditions
12:53 AM 57.9 °F 54.0 °F 87% 30.03 in 10.0 mi South 3.5 mph - N/A   Overcast
1:53 AM 57.9 °F 54.0 °F 87% 30.02 in 10.0 mi ESE 4.6 mph - N/A   Overcast
2:53 AM 57.0 °F 54.0 °F 89% 30.01 in 8.0 mi SE 4.6 mph - N/A   Overcast
3:53 AM 57.0 °F 54.0 °F 89% 30.00 in 10.0 mi SE 3.5 mph - N/A   Overcast
4:53 AM 57.0 °F 54.0 °F 89% 29.99 in 10.0 mi Calm Calm - N/A   Overcast
5:53 AM 57.0 °F 54.0 °F 89% 30.01 in 10.0 mi Calm Calm - N/A   Overcast
6:53 AM 55.9 °F 53.1 °F 90% 30.01 in 8.0 mi SSW 5.8 mph - N/A   Overcast
7:53 AM 55.9 °F 53.1 °F 90% 30.03 in 6.0 mi SSW 5.8 mph - N/A   Overcast
8:53 AM 57.0 °F 53.1 °F 87% 30.04 in 8.0 mi SW 6.9 mph - N/A   Overcast
9:53 AM 59.0 °F 54.0 °F 83% 30.04 in 10.0 mi South 8.1 mph - N/A   Overcast
10:53 AM 63.0 °F 54.0 °F 72% 30.04 in 10.0 mi South 9.2 mph - N/A   Overcast
11:42 AM 64.0 °F 53.1 °F 67% 30.03 in 10.0 mi WSW 10.4 mph - N/A   Scattered Clouds
11:53 AM 63.0 °F 53.1 °F 70% 30.05 in 10.0 mi West 10.4 mph - N/A   Partly Cloudy
1:53 PM 64.0 °F 54.0 °F 70% 30.08 in 10.0 mi WSW 10.4 mph - N/A   Overcast
2:53 PM 64.9 °F 54.0 °F 68% 30.08 in 10.0 mi SW 10.4 mph - N/A   Mostly Cloudy
3:10 PM 64.9 °F 54.0 °F 68% 30.06 in 10.0 mi SW 10.4 mph - N/A   Scattered Clouds
3:53 PM 64.0 °F 54.0 °F 70% 30.08 in 10.0 mi WSW 10.4 mph - N/A   Partly Cloudy
4:53 PM 64.0 °F 53.1 °F 67% 30.07 in 10.0 mi WSW 10.4 mph - N/A   Clear
5:53 PM 62.1 °F 53.1 °F 72% 30.07 in 10.0 mi WSW 9.2 mph - N/A   Clear
6:53 PM 59.0 °F 53.1 °F 81% 30.08 in 10.0 mi West 4.6 mph - N/A   Clear
7:42 PM 57.0 °F 53.1 °F 87% 30.07 in 10.0 mi West 4.6 mph - N/A   Partly Cloudy
7:53 PM 57.0 °F 53.1 °F 87% 30.09 in 10.0 mi WNW 3.5 mph - N/A   Partly Cloudy
8:53 PM 57.0 °F 52.0 °F 83% 30.08 in 10.0 mi NNW 3.5 mph - N/A   Clear
9:32 PM 55.9 °F 52.0 °F 87% 30.07 in 10.0 mi NNE 3.5 mph - N/A   Scattered Clouds
9:41 PM 55.9 °F 52.0 °F 87% 30.07 in 10.0 mi Calm Calm - N/A   Mostly Cloudy
9:53 PM 55.9 °F 53.1 °F 90% 30.09 in 9.0 mi Calm Calm - N/A   Mostly Cloudy
10:53 PM 55.9 °F 53.1 °F 90% 30.08 in 10.0 mi Calm Calm - N/A   Mostly Cloudy
11:53 PM 57.0 °F 53.1 °F 87% 30.06 in 10.0 mi Calm Calm - N/A   Partly Cloudy